Location: ??
(35.5653°N, 139.6194°E)
Time: 03:56:56
(UTC+00:00)

Cosmos 2298 Rocket - Pass Details

Date: 20 November 2019
Orbit: 777 x 783 km, 74.0° (Epoch: 05 December)

Event Time Altitude Azimuth Distance (km) Brightness Sun altitude
Exits shadow 19:45:18 23° 231° (SW) 1,618 5.3 -19.6°
Maximum altitude 19:48:17 45° 291° (WNW) 1,055 4.2 -19.0°
Drops below altitude 10° 19:53:22 10° 4° (N) 2,334 6.4 -18.0°
Sets 19:55:52 0° 11° (N) 3,264 7.3 -17.5°
